THORAD AGENA D DEB, 4651

Orbit data source: Space-Track

THORAD AGENA D DEB, 4651 is space debris in SSO originally from a launch on Wed, 08 Apr 1970 UTC launched from the Air Force Western Test Range (AFWTR). Debris objects in space refer to the collection of defunct objects orbiting the Earth. Examples of debris include non-operational satellites, rocket bodies, and fragments generated from explosions, collisions, or faulty payload assembly.

Loading next visibility...
Identifier
4651, 1970-025AK
Orbit
SSO
Last TLE update
16 hours ago
Origin
Manufacturer
Unknown
Mission
Spacecraft
Bus & Motor
Unknown
Mass
Unknown
Launch date (UTC)
1970-04-08 (55 years ago)
Launch vehicle
Unknown
Launch site
Air Force Western Test Range (AFWTR)
Object type
Payload
Rocket body
Debris
Shape & HBR
Unknown
Radar Cross Section
Small (<0.1 m²)

Expand to show TLE details & history

TLE from 16 hours ago
0 THORAD AGENA D DEB
1 04651U 70025AK  25189.69096980  .00000699  00000-0  49064-3 0  9992
2 04651 100.1315 100.0693 0042076 286.0569  73.5961 14.01906563787573
Epoch: 2025-07-08T16:34Z
TLE epoch observation values (Epoch: 2025-07-08T16:34:59.79Z)
Latitude
-0.00007°
Longitude
-75.56214°
Altitude
881.525 km
Speed
7.416 km/s
True Right ascension
06h 40m 16s
True Declination
0° 00' 00"
Sunlit
Object was in daylight at epoch
Visualization orbit readout
Latitude
25.41496°
Longitude
110.02973°
Altitude
909.814 km
Speed
7.389 km/s
Apparent Right ascension
16h 01m 01s
Apparent Declination
-16° 38' 58"
Sunlit
Object is in full shadow
Visualization observer readout
Local Sidereal Time
20:53:52
Azimuth
246.579° WSW
Elevation
1.628°
Doppler factor
1
Orbital elements
Apogee altitude
915.014 km
Perigee altitude
853.898 km
Semi-major axis
7,262.593 km
Eccentricity
0.00421
Inclination
100.1315°
RAAN
100.0693°
Arg. of periapsis
286.0569°
True anomaly
Unknown
Mean anomaly
73.5961°
Eccentric anomaly
Unknown
Mean motion
3.50676 °/min
Orbital period
102.66 mins
BSTAR
0.00049064
Loading maneuver chart data...
Loading SW <> Apogee altitude chart data...

THORAD AGENA D DEB Visibility forecast

Observer location: undefined°, undefined°

Span
Click to sort rows by Start time (UTC) header in descending order
Start Az.
Max El. time (UTC)
Max El. Az.
Max El.
End time (UTC)
End Az.
8 mins2025-07-09 16:43:09.700Z107.371° ESE2025-07-09 16:47:09.700Z57.572° ENE21.583°2025-07-09 16:51:09.700Z12.294° NNE
9 mins2025-07-09 18:24:09.700Z189.963° SSW2025-07-09 18:28:09.700Z272.391° WNW37.922°2025-07-09 18:33:09.700Z333.925° NNW
9 mins2025-07-10 06:52:09.700Z22.878° NE2025-07-10 06:56:09.700Z109.364° ESE43.578°2025-07-10 07:01:09.700Z187.975° SSW
6 mins2025-07-10 08:34:09.700Z331.446° NNW2025-07-10 08:37:09.700Z295.759° NW16.842°2025-07-10 08:40:09.700Z263.304° W
|